Location: Andershausen
(51.8462°N, 9.8595°E)
Time: 06:56:04
(UTC+00:00)

Cosmos 2278 Rocket - Pass Details

Date: 18 November 2025
Orbit: 841 x 843 km, 71.0° (Epoch: 11 December)

Event Time Altitude Azimuth Distance (km) Brightness Sun altitude
Rises 17:36:34 0° 216° (SW) 3,387 6.0 -19.8°
Reaches altitude 10° 17:39:01 10° 218° (SW) 2,456 5.2 -20.2°
Maximum altitude 17:44:38 72° 303° (WNW) 890 2.4 -21.1°
Enters shadow 17:48:37 20° 25° (NNE) 1,852 3.7 -21.7°
